,,Stat6,,Stat2,,Stat8,,Stat9,,Stat10,,Wind1,,Wind1,
time,status,PA1M_AVG,status,PR1M_SUM,status,RH1M_AVG,status,SR1M_AVG,status,TA1M_AVG,status,W1dAve1m,status,W1sAve1m,
2008-08-24, 07:00:01,VALID,917.615,VALID,0,VALID,100,VALID,48.0048,VALID,18.6014,VALID,148,VALID,0.46968,
2008-08-24, 07:01:00,VALID,917.614,VALID,0,VALID,100,VALID,49.7708,VALID,18.6079,VALID,159,VALID,0.295603,
2008-08-24, 07:02:00,VALID,917.63,VALID,0,VALID,100,VALID,51.2821,VALID,18.6274,VALID,157,VALID,0.273624,
2008-08-24, 07:03:00,VALID,917.65,VALID,0,VALID,100,VALID,52.6236,VALID,18.6433,VALID,179,VALID,0.644717,
2008-08-24, 07:04:00,VALID,917.656,VALID,0,VALID,100,VALID,53.5575,VALID,18.6501,VALID,193,VALID,0.456174,
2008-08-24, 07:05:00,VALID,917.655,VALID,0,VALID,100,VALID,54.933,VALID,18.6698,VALID,192,VALID,0.159412,
2008-08-24, 07:06:00,VALID,917.661,VALID,0,VALID,100,VALID,55.9858,VALID,18.6825,VALID,192,VALID,0,
2008-08-24, 07:07:00,VALID,917.664,VALID,0,VALID,100,VALID,56.716,VALID,18.7084,VALID,190,VALID,0,
2008-08-24, 07:08:00,VALID,917.678,VALID,0,VALID,100,VALID,57.4462,VALID,18.705,VALID,184,VALID,0,
2008-08-24, 07:09:00,VALID,917.68,VALID,0,VALID,100,VALID,58.3801,VALID,18.7344,VALID,184,VALID,0,
2008-08-24, 07:10:00,VALID,917.686,VALID,0,VALID,100,VALID,59.4838,VALID,18.7606,VALID,184,VALID,0,
2008-08-24, 07:11:00,VALID,917.684,VALID,0,VALID,100,VALID,60.8253,VALID,18.7865,VALID,87,VALID,0.267078,
2008-08-24, 07:12:00,VALID,917.686,VALID,0,VALID,100,VALID,61.9631,VALID,18.819,VALID,48,VALID,0.0582386,
2008-08-24, 07:13:00,VALID,917.695,VALID,0,VALID,100,VALID,62.8461,VALID,18.8254,VALID,48,VALID,0,
2008-08-24, 07:14:00,VALID,917.697,VALID,0,VALID,100,VALID,63.6102,VALID,18.8284,VALID,48,VALID,0,
2008-08-24, 07:15:00,VALID,917.705,VALID,0,VALID,100,VALID,64.5102,VALID,18.8611,VALID,48,VALID,0,
2008-08-24, 07:16:00,VALID,917.728,VALID,0,VALID,100,VALID,65.4951,VALID,18.8317,VALID,52,VALID,0.246094,
2008-08-24, 07:17:00,VALID,917.735,VALID,0,VALID,100,VALID,66.5309,VALID,18.8254,VALID,67,VALID,0.128906,
2008-08-24, 07:18:00,VALID,917.742,VALID,0,VALID,100,VALID,67.8724,VALID,18.8352,VALID,67,VALID,0,
2008-08-24, 07:19:00,VALID,917.746,VALID,0,VALID,100,VALID,69.6214,VALID,18.8773,VALID,67,VALID,0,
2008-08-24, 07:20:00,VALID,917.763,VALID,0,VALID,100,VALID,71.5402,VALID,18.91,VALID,67,VALID,0,
2008-08-24, 07:21:00,VALID,917.758,VALID,0,VALID,100,VALID,73.4761,VALID,18.9557,VALID,67,VALID,0,
2008-08-24, 07:22:00,VALID,917.768,VALID,0,VALID,100,VALID,75.4458,VALID,18.9844,VALID,67,VALID,0,
2008-08-24, 07:23:00,VALID,917.767,VALID,0,VALID,100,VALID,77.3816,VALID,19.0395,VALID,67,VALID,0,
2008-08-24, 07:24:00,VALID,917.765,VALID,0,VALID,100,VALID,79.6571,VALID,19.0784,VALID,67,VALID,0,
2008-08-24, 07:25:00,VALID,917.773,VALID,0,VALID,100,VALID,82.1023,VALID,19.1044,VALID,67,VALID,0,
2008-08-24, 07:26:00,VALID,917.77,VALID,0,VALID,100,VALID,84.7853,VALID,19.1269,VALID,67,VALID,0,
2008-08-24, 07:27:00,VALID,917.776,VALID,0,VALID,100,VALID,87.655,VALID,19.1725,VALID,60,VALID,0,
2008-08-24, 07:28:00,VALID,917.786,VALID,0,VALID,100,VALID,90.2871,VALID,19.2015,VALID,57,VALID,0,
2008-08-24, 07:29:00,VALID,917.808,VALID,0,VALID,100,VALID,91.8493,VALID,19.1887,VALID,57,VALID,0,
2008-08-24, 07:30:00,VALID,917.815,VALID,0,VALID,100,VALID,93.4625,VALID,19.2114,VALID,57,VALID,0,
2008-08-24, 07:31:00,VALID,917.832,VALID,0,VALID,100,VALID,98.5567,VALID,19.2501,VALID,57,VALID,0,
2008-08-24, 07:32:00,VALID,917.842,VALID,0,VALID,100,VALID,96.1964,VALID,19.3122,VALID,57,VALID,0,
2008-08-24, 07:33:00,VALID,917.849,VALID,0,VALID,100,VALID,95.9247,VALID,19.3607,VALID,57,VALID,0,
2008-08-24, 07:34:00,VALID,917.855,VALID,0,VALID,100,VALID,97.436,VALID,19.4288,VALID,57,VALID,0,
2008-08-24, 07:35:00,VALID,917.844,VALID,0,VALID,100,VALID,101.63,VALID,19.4779,VALID,57,VALID,0,
2008-08-24, 07:36:00,VALID,917.862,VALID,0,VALID,100,VALID,109.9,VALID,19.5184,VALID,57,VALID,0,
2008-08-24, 07:37:00,VALID,917.86,VALID,0,VALID,100,VALID,118.696,VALID,19.5636,VALID,57,VALID,0,
2008-08-24, 07:38:00,VALID,917.879,VALID,0,VALID,100,VALID,123.485,VALID,19.6287,VALID,57,VALID,0,
2008-08-24, 07:39:00,VALID,917.875,VALID,0,VALID,100,VALID,132.688,VALID,19.6574,VALID,57,VALID,0,
2008-08-24, 07:40:00,VALID,917.889,VALID,0,VALID,100,VALID,142.775,VALID,19.7228,VALID,57,VALID,0,
2008-08-24, 07:41:00,VALID,917.9,VALID,0,VALID,100,VALID,155.714,VALID,19.7295,VALID,57,VALID,0,
2008-08-24, 07:42:00,VALID,917.91,VALID,0,VALID,100,VALID,184.565,VALID,19.7779,VALID,57,VALID,0,
2008-08-24, 07:43:00,VALID,917.923,VALID,0,VALID,100,VALID,251.69,VALID,19.9112,VALID,57,VALID,0,
2008-08-24, 07:44:00,VALID,917.944,VALID,0,VALID,100,VALID,352.828,VALID,20.0537,VALID,57,VALID,0,
2008-08-24, 07:45:00,VALID,917.979,VALID,0,VALID,100,VALID,377.942,VALID,20.2057,VALID,57,VALID,0,
2008-08-24, 07:46:00,VALID,917.996,VALID,0,VALID,100,VALID,334.845,VALID,20.4401,VALID,57,VALID,0,
2008-08-24, 07:47:00,VALID,918.019,VALID,0,VALID,100,VALID,242.537,VALID,20.5082,VALID,57,VALID,0,
2008-08-24, 07:48:00,VALID,918.041,VALID,0,VALID,100,VALID,259.365,VALID,20.4498,VALID,57,VALID,0,
2008-08-24, 07:49:00,VALID,918.061,VALID,0,VALID,100,VALID,267.363,VALID,20.4955,VALID,57,VALID,0,
2008-08-24, 07:50:00,VALID,918.083,VALID,0,VALID,100,VALID,280.829,VALID,20.5177,VALID,55,VALID,0.142773,
2008-08-24, 07:51:00,VALID,918.078,VALID,0,VALID,99.9779,VALID,288.759,VALID,20.536,VALID,47,VALID,0,
2008-08-24, 07:52:00,VALID,918.086,VALID,0,VALID,99.9285,VALID,328.647,VALID,20.6236,VALID,22,VALID,0.00109012,
2008-08-24, 07:53:00,VALID,918.082,VALID,0,VALID,99.811,VALID,371.082,VALID,20.7567,VALID,23,VALID,0.384301,
2008-08-24, 07:54:00,VALID,918.094,VALID,0,VALID,98.1641,VALID,481.203,VALID,20.6398,VALID,41,VALID,0.874467,
2008-08-24, 07:55:00,VALID,918.096,VALID,0,VALID,98.529,VALID,492.767,VALID,20.734,VALID,46,VALID,0.46946,
2008-08-24, 07:56:00,VALID,918.101,VALID,0,VALID,97.9987,VALID,481.508,VALID,20.87,VALID,33,VALID,0.73137,
2008-08-24, 07:57:00,VALID,918.09,VALID,0,VALID,97.8792,VALID,456.309,VALID,20.9904,VALID,82,VALID,0.00272529,
2008-08-24, 07:58:00,VALID,918.089,VALID,0,VALID,98.1221,VALID,398.812,VALID,21.2636,VALID,93,VALID,0.0833333,
2008-08-24, 07:59:00,VALID,918.088,VALID,0,VALID,96.867,VALID,321.379,VALID,21.4126,VALID,39,VALID,0.266493,
2008-08-24, 08:00:00,VALID,918.09,VALID,0,VALID,94.8897,VALID,253.965,VALID,21.2798,VALID,32,VALID,0,
2008-08-24, 08:01:00,VALID,918.085,VALID,0,VALID,94.1788,VALID,275.395,VALID,21.2928,VALID,336,VALID,0,
2008-08-24, 08:02:00,VALID,918.081,VALID,0,VALID,93.9016,VALID,240.516,VALID,21.2587,VALID,299,VALID,0,
2008-08-24, 08:03:00,VALID,918.081,VALID,0,VALID,94.0288,VALID,210.681,VALID,21.1551,VALID,314,VALID,0,
2008-08-24, 08:04:00,VALID,918.08,VALID,0,VALID,94.0491,VALID,225.913,VALID,21.0412,VALID,314,VALID,0,
2008-08-24, 08:05:00,VALID,918.084,VALID,0,VALID,95.0753,VALID,266.022,VALID,20.9828,VALID,342,VALID,0,
2008-08-24, 08:06:00,VALID,918.075,VALID,0,VALID,96.1168,VALID,373.935,VALID,21.1045,VALID,16,VALID,0,
2008-08-24, 08:07:00,VALID,918.106,VALID,0,VALID,96.2477,VALID,393.361,VALID,21.2189,VALID,11,VALID,0,
2008-08-24, 08:08:00,VALID,918.137,VALID,0,VALID,96.7106,VALID,244.065,VALID,21.3939,VALID,11,VALID,0,
2008-08-24, 08:09:00,VALID,918.166,VALID,0,VALID,95.2521,VALID,219.392,VALID,21.4689,VALID,358,VALID,0,
2008-08-24, 08:10:00,VALID,918.193,VALID,0,VALID,94.4904,VALID,193.463,VALID,21.4104,VALID,314,VALID,0,
2008-08-24, 08:11:00,VALID,918.228,VALID,0,VALID,93.4604,VALID,178.553,VALID,21.3393,VALID,299,VALID,0,
2008-08-24, 08:12:00,VALID,918.233,VALID,0,VALID,93.1628,VALID,175.225,VALID,21.2092,VALID,299,VALID,0,
2008-08-24, 08:13:00,VALID,918.261,VALID,0,VALID,93.5888,VALID,180.031,VALID,21.1362,VALID,300,VALID,0,
2008-08-24, 08:14:00,VALID,918.268,VALID,0,VALID,93.6549,VALID,190.644,VALID,21.091,VALID,352,VALID,0,
2008-08-24, 08:15:00,VALID,918.275,VALID,0,VALID,94.0326,VALID,187.774,VALID,21.0196,VALID,358,VALID,0,
2008-08-24, 08:16:00,VALID,918.279,VALID,0,VALID,94.3442,VALID,188.878,VALID,21.0423,VALID,358,VALID,0,
2008-08-24, 08:17:00,VALID,918.298,VALID,0,VALID,94.5247,VALID,193.598,VALID,21.111,VALID,357,VALID,0,
2008-08-24, 08:18:00,VALID,918.308,VALID,0,VALID,94.2666,VALID,196.689,VALID,21.1337,VALID,348,VALID,0,
2008-08-24, 08:19:00,VALID,918.313,VALID,0,VALID,93.9716,VALID,197.996,VALID,21.1205,VALID,348,VALID,0,
2008-08-24, 08:20:00,VALID,918.315,VALID,0,VALID,94.1293,VALID,189.031,VALID,21.1013,VALID,348,VALID,0,
2008-08-24, 08:21:00,VALID,918.334,VALID,0,VALID,93.8368,VALID,172.338,VALID,21.0801,VALID,296,VALID,0.047619,
2008-08-24, 08:22:00,VALID,918.341,VALID,0,VALID,93.9004,VALID,150.909,VALID,21.0444,VALID,295,VALID,0,
2008-08-24, 08:23:00,VALID,918.349,VALID,0,VALID,94.2119,VALID,129.768,VALID,21.0382,VALID,295,VALID,0,
2008-08-24, 08:24:00,VALID,918.357,VALID,0,VALID,94.6303,VALID,121.634,VALID,21.0282,VALID,298,VALID,0,
2008-08-24, 08:25:00,VALID,918.364,VALID,0,VALID,94.8541,VALID,133.758,VALID,20.973,VALID,326,VALID,0,
2008-08-24, 08:26:00,VALID,918.379,VALID,0,VALID,95.3881,VALID,140.313,VALID,20.9955,VALID,332,VALID,0,
2008-08-24, 08:27:00,VALID,918.384,VALID,0,VALID,95.5344,VALID,152.488,VALID,20.989,VALID,332,VALID,0,
2008-08-24, 08:28:00,VALID,918.392,VALID,0,VALID,95.2623,VALID,182.612,VALID,20.9503,VALID,332,VALID,0.168899,
2008-08-24, 08:29:00,VALID,918.411,VALID,0,VALID,95.6018,VALID,180.252,VALID,20.9108,VALID,332,VALID,0,
2008-08-24, 08:30:00,VALID,918.404,VALID,0,VALID,95.7264,VALID,172.916,VALID,20.9113,VALID,340,VALID,0,
2008-08-24, 08:31:00,VALID,918.415,VALID,0,VALID,95.7963,VALID,170.505,VALID,20.9146,VALID,2,VALID,0.0979288,
2008-08-24, 08:32:00,VALID,918.416,VALID,0,VALID,95.9388,VALID,183.291,VALID,20.8854,VALID,12,VALID,0.256641,
2008-08-24, 08:33:00,VALID,918.433,VALID,0,VALID,96.4525,VALID,421.617,VALID,20.9468,VALID,23,VALID,0.0809152,
2008-08-24, 08:34:00,VALID,918.433,VALID,0,VALID,96.5924,VALID,349.262,VALID,21.0342,VALID,24,VALID,0,
2008-08-24, 08:35:00,VALID,918.436,VALID,0,VALID,95.5967,VALID,226.151,VALID,21.0404,VALID,356,VALID,0.0209517,
2008-08-24, 08:36:00,VALID,918.432,VALID,0,VALID,95.6132,VALID,166.956,VALID,21.0198,VALID,36,VALID,0.106771,
2008-08-24, 08:37:00,VALID,918.429,VALID,0,VALID,95.7938,VALID,113.109,VALID,21.0328,VALID,49,VALID,0.221058,
2008-08-24, 08:38:00,VALID,918.45,VALID,0,VALID,96.1893,VALID,121.209,VALID,21.0783,VALID,26,VALID,0.579427,
2008-08-24, 08:39:00,VALID,918.436,VALID,0,VALID,95.5369,VALID,121.99,VALID,21.0655,VALID,338,VALID,0.278587,
2008-08-24, 08:40:00,VALID,918.444,VALID,0,VALID,95.5585,VALID,245.118,VALID,21.0041,VALID,336,VALID,0.2258,
2008-08-24, 08:41:00,VALID,918.452,VALID,0,VALID,95.2839,VALID,401.58,VALID,20.9387,VALID,309,VALID,0.0682745,
2008-08-24, 08:42:00,VALID,918.462,VALID,0,VALID,96.146,VALID,268.127,VALID,20.9455,VALID,336,VALID,0.10016,
2008-08-24, 08:43:00,VALID,918.464,VALID,0,VALID,96.5924,VALID,303.464,VALID,21.0555,VALID,336,VALID,0,
2008-08-24, 08:44:00,VALID,918.475,VALID,0,VALID,96.5555,VALID,292.257,VALID,21.1462,VALID,357,VALID,0.271019,
2008-08-24, 08:45:00,VALID,918.475,VALID,0,VALID,96.0354,VALID,242.232,VALID,21.1694,VALID,4,VALID,0.0174851,
2008-08-24, 08:46:00,VALID,918.47,VALID,0,VALID,95.6437,VALID,219.46,VALID,21.1789,VALID,344,VALID,0,
2008-08-24, 08:47:00,VALID,918.483,VALID,0,VALID,95.6768,VALID,211.411,VALID,21.237,VALID,7,VALID,0,
2008-08-24, 08:48:00,VALID,918.492,VALID,0,VALID,95.6323,VALID,227.322,VALID,21.283,VALID,18,VALID,0,
2008-08-24, 08:49:00,VALID,918.499,VALID,0,VALID,95.1338,VALID,236.543,VALID,21.3393,VALID,321,VALID,0,
2008-08-24, 08:50:00,VALID,918.493,VALID,0,VALID,94.4446,VALID,248.531,VALID,21.2944,VALID,309,VALID,0,
2008-08-24, 08:51:00,VALID,918.501,VALID,0,VALID,94.0097,VALID,242.639,VALID,21.2132,VALID,14,VALID,0,
2008-08-24, 08:52:00,VALID,918.49,VALID,0,VALID,94.6341,VALID,233.945,VALID,21.2327,VALID,13,VALID,0,
2008-08-24, 08:53:00,VALID,918.495,VALID,0,VALID,94.5209,VALID,221.192,VALID,21.3003,VALID,355,VALID,0,
2008-08-24, 08:54:00,VALID,918.474,VALID,0,VALID,94.3187,VALID,195.687,VALID,21.3204,VALID,31,VALID,0,
2008-08-24, 08:55:00,VALID,918.455,VALID,0,VALID,94.7676,VALID,178.825,VALID,21.3528,VALID,33,VALID,0,
2008-08-24, 08:56:00,VALID,918.456,VALID,0,VALID,94.7422,VALID,195.212,VALID,21.4278,VALID,27,VALID,0,
2008-08-24, 08:57:00,VALID,918.447,VALID,0,VALID,94.2323,VALID,215.589,VALID,21.3818,VALID,35,VALID,0,
2008-08-24, 08:58:00,VALID,918.454,VALID,0,VALID,94.4878,VALID,208.61,VALID,21.457,VALID,25,VALID,0,
2008-08-24, 08:59:00,VALID,918.469,VALID,0,VALID,94.479,VALID,219.324,VALID,21.5376,VALID,12,VALID,0,
2008-08-24, 09:00:00,VALID,918.473,VALID,0,VALID,93.8991,VALID,224.86,VALID,21.5506,VALID,360,VALID,0,
2008-08-24, 09:01:00,VALID,918.485,VALID,0,VALID,93.8304,VALID,232.705,VALID,21.5638,VALID,10,VALID,0,
2008-08-24, 09:02:00,VALID,918.49,VALID,0,VALID,93.4464,VALID,233.317,VALID,21.5676,VALID,21,VALID,0.196528,
2008-08-24, 09:03:00,VALID,918.493,VALID,0,VALID,93.0319,VALID,229.411,VALID,21.5019,VALID,38,VALID,0.253018,
2008-08-24, 09:04:00,VALID,918.503,VALID,0,VALID,92.864,VALID,219.324,VALID,21.5219,VALID,320,VALID,0.887355,
2008-08-24, 09:05:00,VALID,918.499,VALID,0,VALID,92.5499,VALID,209.679,VALID,21.421,VALID,357,VALID,0.687855,
2008-08-24, 09:06:00,VALID,918.483,VALID,0,VALID,93.2951,VALID,202.836,VALID,21.3823,VALID,27,VALID,0,
2008-08-24, 09:07:00,VALID,918.473,VALID,0,VALID,93.5825,VALID,198.421,VALID,21.4175,VALID,24,VALID,0,
2008-08-24, 09:08:00,VALID,918.46,VALID,0,VALID,92.7814,VALID,194.855,VALID,21.4402,VALID,271,VALID,0,
2008-08-24, 09:09:00,VALID,918.446,VALID,0,VALID,92.6822,VALID,197.198,VALID,21.3783,VALID,271,VALID,0,
2008-08-24, 09:10:00,VALID,918.423,VALID,0,VALID,93.4375,VALID,201.41,VALID,21.3561,VALID,271,VALID,0,
2008-08-24, 09:11:00,VALID,918.434,VALID,0,VALID,94.1623,VALID,202.174,VALID,21.421,VALID,271,VALID,0,
2008-08-24, 09:12:00,VALID,918.41,VALID,0,VALID,93.7096,VALID,211.989,VALID,21.4794,VALID,266,VALID,0,
2008-08-24, 09:13:00,VALID,918.42,VALID,0,VALID,93.969,VALID,229.105,VALID,21.4729,VALID,265,VALID,0,
2008-08-24, 09:14:00,VALID,918.402,VALID,0,VALID,94.6354,VALID,257.922,VALID,21.5606,VALID,268,VALID,0,
2008-08-24, 09:15:00,VALID,918.408,VALID,0,VALID,94.9418,VALID,368.144,VALID,21.6869,VALID,286,VALID,0,
2008-08-24, 09:16:00,VALID,918.379,VALID,0,VALID,93.6867,VALID,389.574,VALID,21.7876,VALID,328,VALID,0.252431,
2008-08-24, 09:17:00,VALID,918.389,VALID,0,VALID,93.847,VALID,466.803,VALID,21.8528,VALID,344,VALID,0.135243,
2008-08-24, 09:18:00,VALID,918.385,VALID,0,VALID,92.4711,VALID,502.174,VALID,21.9275,VALID,297,VALID,0.405678,
2008-08-24, 09:19:00,VALID,918.361,VALID,0,VALID,92.5156,VALID,395.585,VALID,21.9732,VALID,309,VALID,0.228051,
2008-08-24, 09:20:00,VALID,918.357,VALID,0,VALID,92.5359,VALID,375.073,VALID,22.0928,VALID,25,VALID,0.671693,
2008-08-24, 09:21:00,VALID,918.345,VALID,0,VALID,91.787,VALID,373.188,VALID,22.1664,VALID,22,VALID,0.634028,
2008-08-24, 09:22:00,VALID,918.351,VALID,0,VALID,91.1575,VALID,320.836,VALID,22.283,VALID,347,VALID,0.322917,
2008-08-24, 09:23:00,VALID,918.358,VALID,0,VALID,90.4085,VALID,321.702,VALID,22.329,VALID,346,VALID,0.00497159,
2008-08-24, 09:24:00,VALID,918.35,VALID,0,VALID,89.7079,VALID,332.128,VALID,22.4326,VALID,346,VALID,0,
2008-08-24, 09:25:00,VALID,918.358,VALID,0,VALID,89.6151,VALID,334.675,VALID,22.5268,VALID,5,VALID,0.263889,
2008-08-24, 09:26:00,VALID,918.352,VALID,0,VALID,89.5973,VALID,318.034,VALID,22.5534,VALID,19,VALID,0.622768,
2008-08-24, 09:27:00,VALID,918.362,VALID,0,VALID,89.5006,VALID,295.653,VALID,22.5793,VALID,356,VALID,0.69112,
2008-08-24, 09:28:00,VALID,918.372,VALID,0,VALID,88.903,VALID,279.963,VALID,22.4949,VALID,37,VALID,0.274877,
2008-08-24, 09:29:00,VALID,918.381,VALID,0,VALID,88.4248,VALID,272.882,VALID,22.3901,VALID,45,VALID,0.204942,
2008-08-24, 09:30:00,VALID,918.385,VALID,0,VALID,88.7962,VALID,271.54,VALID,22.3231,VALID,38,VALID,0.409702,
2008-08-24, 09:31:00,VALID,918.406,VALID,0,VALID,88.8343,VALID,263.831,VALID,22.3517,VALID,9,VALID,0.509673,
2008-08-24, 09:32:00,VALID,918.43,VALID,0,VALID,88.0586,VALID,245.016,VALID,22.2581,VALID,5,VALID,0.000558036,
2008-08-24, 09:33:00,VALID,918.45,VALID,0,VALID,88.6219,VALID,236.118,VALID,22.2416,VALID,43,VALID,0.405729,
2008-08-24, 09:34:00,VALID,918.434,VALID,0,VALID,89.1865,VALID,247.767,VALID,22.2773,VALID,39,VALID,0.883333,
2008-08-24, 09:35:00,VALID,918.439,VALID,0,VALID,89.4447,VALID,264.697,VALID,22.3455,VALID,36,VALID,0.699049,
2008-08-24, 09:36:00,VALID,918.43,VALID,0,VALID,89.7715,VALID,279.98,VALID,22.4341,VALID,27,VALID,0.46503,
2008-08-24, 09:37:00,VALID,918.43,VALID,0,VALID,89.7791,VALID,294.159,VALID,22.4825,VALID,35,VALID,0.0116235,
2008-08-24, 09:38:00,VALID,918.41,VALID,0,VALID,89.802,VALID,302.87,VALID,22.5477,VALID,14,VALID,0.0678267,
2008-08-24, 09:39:00,VALID,918.395,VALID,0,VALID,89.6964,VALID,311.938,VALID,22.5956,VALID,338,VALID,0.201982,
2008-08-24, 09:40:00,VALID,918.395,VALID,0,VALID,89.2921,VALID,338.903,VALID,22.6635,VALID,272,VALID,0.562901,
2008-08-24, 09:41:00,VALID,918.37,VALID,0,VALID,90.2534,VALID,415.113,VALID,22.7036,VALID,294,VALID,0.42736,
2008-08-24, 09:42:00,VALID,918.344,VALID,0,VALID,89.7053,VALID,494.855,VALID,22.7517,VALID,260,VALID,0.482986,
2008-08-24, 09:43:00,VALID,918.34,VALID,0,VALID,88.9691,VALID,425.217,VALID,22.7488,VALID,271,VALID,0.757999,
2008-08-24, 09:44:00,VALID,918.331,VALID,0,VALID,89.2933,VALID,450.247,VALID,22.7131,VALID,290,VALID,0.270508,
2008-08-24, 09:45:00,VALID,918.311,VALID,0,VALID,89.1306,VALID,429.224,VALID,22.6968,VALID,261,VALID,0,
2008-08-24, 09:46:00,VALID,918.299,VALID,0,VALID,89.9698,VALID,388.063,VALID,22.6998,VALID,291,VALID,0,
2008-08-24, 09:47:00,VALID,918.308,VALID,0,VALID,91.6573,VALID,358.584,VALID,22.879,VALID,300,VALID,0,
2008-08-24, 09:48:00,VALID,918.304,VALID,0,VALID,90.6552,VALID,348.277,VALID,23.0122,VALID,89,VALID,0,
2008-08-24, 09:49:00,VALID,918.319,VALID,0,VALID,90.2687,VALID,368.586,VALID,23.0316,VALID,40,VALID,0.134448,
2008-08-24, 09:50:00,VALID,918.335,VALID,0,VALID,90.3971,VALID,386.535,VALID,23.1421,VALID,34,VALID,0.311738,
2008-08-24, 09:51:00,VALID,918.335,VALID,0,VALID,89.5032,VALID,354.526,VALID,23.2945,VALID,30,VALID,0.00145349,
2008-08-24, 09:52:00,VALID,918.338,VALID,0,VALID,87.6136,VALID,345.169,VALID,23.3048,VALID,26,VALID,0.172238,
2008-08-24, 09:53:00,VALID,918.345,VALID,0,VALID,86.6853,VALID,407.744,VALID,23.2791,VALID,329,VALID,0.441592,
2008-08-24, 09:54:00,VALID,918.343,VALID,0,VALID,86.2517,VALID,554.102,VALID,23.1976,VALID,272,VALID,0.053234,
2008-08-24, 09:55:00,VALID,918.335,VALID,0,VALID,86.9193,VALID,511.938,VALID,23.2883,VALID,316,VALID,0.1875,
2008-08-24, 09:56:00,VALID,918.321,VALID,0,VALID,87.1532,VALID,483.665,VALID,23.4217,VALID,14,VALID,0.461846,
2008-08-24, 09:57:00,VALID,918.321,VALID,0,VALID,86.3152,VALID,543.2,VALID,23.4548,VALID,330,VALID,0.765439,
2008-08-24, 09:58:00,VALID,918.307,VALID,0,VALID,85.8155,VALID,635.117,VALID,23.5221,VALID,290,VALID,0.318859,
2008-08-24, 09:59:00,VALID,918.302,VALID,0,VALID,85.64,VALID,548.277,VALID,23.6745,VALID,21,VALID,0.967842,
2008-08-24, 10:00:00,VALID,918.278,VALID,0,VALID,85.3793,VALID,590.78,VALID,23.6748,VALID,355,VALID,0.980382,
2008-08-24, 10:01:00,VALID,918.268,VALID,0,VALID,84.4549,VALID,679.522,VALID,23.5676,VALID,40,VALID,1.29492,
2008-08-24, 10:02:00,VALID,918.269,VALID,0,VALID,84.3659,VALID,698.065,VALID,23.6949,VALID,316,VALID,0.351753,
2008-08-24, 10:03:00,VALID,918.268,VALID,0,VALID,83.4808,VALID,652.217,VALID,23.8411,VALID,305,VALID,1.01181,
2008-08-24, 10:04:00,VALID,918.26,VALID,0,VALID,83.4351,VALID,774.377,VALID,23.728,VALID,351,VALID,0.849382,
2008-08-24, 10:05:00,VALID,918.268,VALID,0,VALID,84.7639,VALID,809.646,VALID,23.8063,VALID,1,VALID,0.862909,
2008-08-24, 10:06:00,VALID,918.273,VALID,0,VALID,84.624,VALID,790.458,VALID,24.0523,VALID,11,VALID,0.452363,
2008-08-24, 10:07:00,VALID,918.292,VALID,0,VALID,82.0299,VALID,674.02,VALID,24.2801,VALID,307,VALID,0.566406,
2008-08-24, 10:08:00,VALID,918.309,VALID,0,VALID,79.886,VALID,587.248,VALID,24.2531,VALID,291,VALID,0.901101,
2008-08-24, 10:09:00,VALID,918.314,VALID,0,VALID,80.2344,VALID,554.934,VALID,24.0667,VALID,274,VALID,0.732143,
2008-08-24, 10:10:00,VALID,918.316,VALID,0,VALID,81.1182,VALID,427.221,VALID,24.0088,VALID,316,VALID,0.268359,
2008-08-24, 10:11:00,VALID,918.331,VALID,0,VALID,81.5912,VALID,360.18,VALID,24.0124,VALID,30,VALID,0.641319,
2008-08-24, 10:12:00,VALID,918.327,VALID,0,VALID,81.5925,VALID,393.582,VALID,23.8818,VALID,4,VALID,0.935404,
2008-08-24, 10:13:00,VALID,918.335,VALID,0,VALID,81.0572,VALID,418.883,VALID,23.7451,VALID,263,VALID,1.15934,
2008-08-24, 10:14:00,VALID,918.335,VALID,0,VALID,82.8501,VALID,552.862,VALID,23.6128,VALID,289,VALID,1.31611,
2008-08-24, 10:15:00,VALID,918.323,VALID,0,VALID,84.5147,VALID,425.438,VALID,23.5248,VALID,13,VALID,0.898438,
2008-08-24, 10:16:00,VALID,918.297,VALID,0,VALID,84.3519,VALID,387.655,VALID,23.5862,VALID,324,VALID,0.519531,
2008-08-24, 10:17:00,VALID,918.311,VALID,0,VALID,85.125,VALID,498.744,VALID,23.658,VALID,346,VALID,0.178735,
2008-08-24, 10:18:00,VALID,918.315,VALID,0,VALID,84.3659,VALID,762.711,VALID,23.899,VALID,289,VALID,0.283156,
2008-08-24, 10:19:00,VALID,918.286,VALID,0,VALID,83.168,VALID,687.299,VALID,24.0647,VALID,302,VALID,0.45258,
2008-08-24, 10:20:00,VALID,918.308,VALID,0,VALID,83.6919,VALID,693.09,VALID,24.1654,VALID,18,VALID,0,
2008-08-24, 10:21:00,VALID,918.301,VALID,0,VALID,84.1141,VALID,418.306,VALID,24.4529,VALID,27,VALID,1.27176,
2008-08-24, 10:22:00,VALID,918.308,VALID,0,VALID,81.1945,VALID,362.473,VALID,24.4272,VALID,37,VALID,1.51527,
2008-08-24, 10:23:00,VALID,918.32,VALID,0,VALID,81.5175,VALID,339.685,VALID,24.2127,VALID,332,VALID,0.661519,
2008-08-24, 10:24:00,VALID,918.323,VALID,0,VALID,82.1482,VALID,323.111,VALID,24.3265,VALID,288,VALID,0,
2008-08-24, 10:25:00,VALID,918.329,VALID,0,VALID,82.0287,VALID,297.827,VALID,24.4922,VALID,288,VALID,0.0295759,
2008-08-24, 10:26:00,VALID,918.327,VALID,0,VALID,81.4793,VALID,263.865,VALID,24.5793,VALID,278,VALID,0.070503,
2008-08-24, 10:27:00,VALID,918.325,VALID,0,VALID,81.8036,VALID,231.89,VALID,24.6742,VALID,23,VALID,0.0625,
2008-08-24, 10:28:00,VALID,918.324,VALID,0,VALID,81.3801,VALID,206.742,VALID,24.8045,VALID,13,VALID,0.00142045,
2008-08-24, 10:29:00,VALID,918.318,VALID,0,VALID,80.05,VALID,185.125,VALID,24.7782,VALID,329,VALID,0.10434,
2008-08-24, 10:30:00,VALID,918.33,VALID,0,VALID,80.565,VALID,176.821,VALID,24.6381,VALID,21,VALID,0.374628,
2008-08-24, 10:31:00,VALID,918.32,VALID,0,VALID,81.3611,VALID,188.504,VALID,24.5117,VALID,282,VALID,0.21968,
2008-08-24, 10:32:00,VALID,918.317,VALID,0,VALID,81.2517,VALID,214.587,VALID,24.4373,VALID,228,VALID,0.0904796,
2008-08-24, 10:33:00,VALID,918.309,VALID,0,VALID,81.8456,VALID,244.473,VALID,24.408,VALID,142,VALID,0.269717,
2008-08-24, 10:34:00,VALID,918.289,VALID,0,VALID,82.5017,VALID,266.633,VALID,24.359,VALID,9,VALID,0.529535,
2008-08-24, 10:35:00,VALID,918.281,VALID,0,VALID,83.2532,VALID,272.729,VALID,24.2907,VALID,33,VALID,0.910528,
2008-08-24, 10:36:00,VALID,918.267,VALID,0,VALID,83.9526,VALID,267.278,VALID,24.1965,VALID,28,VALID,0.738839,
2008-08-24, 10:37:00,VALID,918.256,VALID,0,VALID,83.711,VALID,256.224,VALID,24.0382,VALID,29,VALID,0.870313,
2008-08-24, 10:38:00,VALID,918.237,VALID,0,VALID,84.2502,VALID,256.512,VALID,23.8946,VALID,25,VALID,0.655523,
2008-08-24, 10:39:00,VALID,918.237,VALID,0,VALID,85.1428,VALID,256.275,VALID,23.9239,VALID,22,VALID,0.47832,
2008-08-24, 10:40:00,VALID,918.223,VALID,0,VALID,84.8643,VALID,269.231,VALID,23.9634,VALID,28,VALID,1.50454,
2008-08-24, 10:41:00,VALID,918.212,VALID,0,VALID,85.0513,VALID,484.786,VALID,23.8524,VALID,17,VALID,1.08789,
2008-08-24, 10:42:00,VALID,918.207,VALID,0,VALID,84.5503,VALID,347.207,VALID,23.8491,VALID,15,VALID,0.447569,